Voltar ao catálogo

STARLINK-35244

AtivoComunicaçõesVLEO
NORAD 65829·PAYLOAD·🇺🇸 United States

Lançado Sep 29, 2025 de Vandenberg Space Force Base

Loading…

Próximas Passagens (próximas 24 horas)

TLE

AtualizadoSource: CelesTrak SupGP

Época: Sep 14, 2026, 15:15 UTC

1 65829C 25221G   26257.63590278  .00008132  00000+0  26161-3 0  2573
2 65829  53.1571 292.2894 0001173  79.2972 159.4877 15.31685595    18

Acompanhe STARLINK-35244 em tempo real com AllMySat

Download on the App Store